{"data":{"norad_id":59267,"intl_designator":"2024-050P","name":"STARLINK-31579","alt_names":[],"object_type":"PAYLOAD","status":"ACTIVE","operator":null,"country":"US","launch_date":"2024-03-19","launch_site_code":"AFWTR","launch_vehicle":null,"mission":null,"orbit_class":"UNKNOWN","rcs_meters":null,"size_class":null,"mass_kg":null,"dimensions":null,"purposes":["comms"],"wikipedia_slug":null,"has_3d_model":false,"image_url":null,"decayed_at":null,"tle_current":{"epoch":"2026-09-21T17:31:07.593600Z","epoch_age_seconds":56032,"freshness":"FRESH","line1":"1 59267U 24050P   26264.72994900 -.00031251  00000+0 -91353-3 0  9997","line2":"2 59267  53.1617 349.6688 0000329 102.9471 257.1569 15.34541099140579","mean_motion":15.34541099,"eccentricity":3.29e-5,"inclination_deg":53.1617,"raan_deg":349.6688,"arg_perigee_deg":102.9471,"mean_anomaly_deg":257.1569,"bstar":-0.00091353,"rev_number":14057,"period_min":93.839128905599,"perigee_km":462.05884653089,"apogee_km":462.50894622587,"semimajor_km":6840.4208963784,"source":"CELESTRAK","updated_at":"2026-09-22T09:00:48.873069Z"}}}